Meriden, CT

9:50 AM EDT on March 30, 2017 (GMT -0400)
Meriden Markham Municipal

Weather History for KMMK - February, 2013

Change the Weather History Date:

Wednesday, February 27, 2013

  Actual Average (KOXC) Record (KOXC)
Temperature  
Mean Temperature 40 °F -  
Max Temperature 44 °F 38 °F 66 °F (1997)
Min Temperature 35 °F 23 °F 5 °F (2003)
Degree Days  
Heating Degree Days 26    
Moisture  
Dew Point 38 °F    
Average Humidity 89    
Maximum Humidity 100    
Minimum Humidity 81    
Precipitation  
Precipitation 1.14 in - - ()
Sea Level Pressure  
Sea Level Pressure 29.67 in    
Wind  
Wind Speed 7 mph (NNE)    
Max Wind Speed 14 mph    
Max Gust Speed 24 mph    
Visibility 4 miles    
Events Rain    
Averages and records for this station are not official NWS values.
T = Trace of Precipitation, MM = Missing Value Source: NWS Daily Summary

Daily Weather History Graph

Daily Weather History Graph

Search for Another Location

Airport or City:

Trip Planner

Search our weather history database for the weather conditions in past years. The results will help you decide how hot, cold, wet, or windy it might be!

Date:

Astronomy

Feb. 27, 2013 Rise Set
Actual Time 6:28 AM EST 5:39 PM EST
Civil Twilight 6:00 AM EST 6:07 PM EST
Nautical Twilight 5:28 AM EST 6:39 PM EST
Astronomical Twilight 4:56 AM EST 7:11 PM EST
Moon 8:00 PM EST (2/27) 7:00 AM EST (2/27)
Length of Visible Light 12h 06m
Length of Day
11h 11m
Waning Gibbous, 96% of the Moon is Illuminated
Feb 27
Waning Gibbous
Mar 4
Last Quarter
Mar 11
New
Mar 19
First Quarter
Mar 27
Full

Hourly Weather History & Observations

Time (EST) Temp. Windchill Dew Point Humidity Pressure Visibility Wind Dir Wind Speed Gust Speed Precip Events Conditions
12:46 AM 35.6 °F 29.2 °F 30.2 °F 81% 30.01 in 7.0 mi North 8.1 mph - 0.08 in Rain Light Rain
12:53 AM 35.1 °F 29.3 °F 30.9 °F 85% 30.01 in 9.0 mi NNE 6.9 mph - 0.08 in Rain Light Rain
1:53 AM 35.1 °F 30.1 °F 32.0 °F 89% 30.00 in 4.0 mi NNE 5.8 mph - 0.11 in Rain Heavy Rain
2:53 AM 35.1 °F 31.0 °F 33.1 °F 92% 29.95 in 7.0 mi Variable 4.6 mph - 0.13 in Rain Light Rain
3:53 AM 36.0 °F 27.5 °F 33.1 °F 89% 29.89 in 6.0 mi NE 12.7 mph 19.6 mph 0.06 in Rain Rain
5:53 AM 37.9 °F 31.5 °F 36.0 °F 93% 29.83 in 4.0 mi North 9.2 mph - 0.10 in Rain Rain
6:53 AM 39.0 °F 33.4 °F 37.0 °F 93% 29.80 in 4.0 mi NE 8.1 mph - 0.07 in Rain Light Rain
7:53 AM 39.0 °F 33.4 °F 37.0 °F 93% 29.77 in 5.0 mi North 8.1 mph - 0.06 in Rain Rain
8:44 AM 39.2 °F 35.0 °F 37.4 °F 93% 29.74 in 2.0 mi North 5.8 mph - 0.05 in Rain Rain
8:53 AM 39.0 °F 34.0 °F 37.0 °F 93% 29.74 in 2.0 mi North 6.9 mph - 0.07 in Rain Rain
9:02 AM 39.2 °F 33.6 °F 37.4 °F 93% 29.74 in 2.0 mi North 8.1 mph - 0.01 in Rain Rain
9:14 AM 39.2 °F 33.6 °F 37.4 °F 93% 29.72 in 1.8 mi North 8.1 mph - 0.04 in Rain Rain
9:33 AM 39.2 °F 33.6 °F 37.4 °F 93% 29.71 in 2.0 mi North 8.1 mph - 0.09 in Rain Rain
10:04 AM 39.2 °F 34.2 °F 37.4 °F 93% 29.68 in 1.8 mi North 6.9 mph - 0.04 in Rain Heavy Rain
10:41 AM 42.8 °F 38.6 °F 39.2 °F 87% 29.68 in 2.0 mi Variable 6.9 mph - 0.14 in Rain Rain
10:53 AM 42.1 °F - 39.9 °F 92% 29.68 in 2.0 mi Calm Calm - 0.17 in Rain Heavy Rain
11:08 AM 42.8 °F 35.8 °F 39.2 °F 87% 29.65 in 2.5 mi NE 13.8 mph 19.6 mph 0.02 in Rain Rain
11:37 AM 44.6 °F 38.8 °F 39.2 °F 81% 29.64 in 3.0 mi ENE 11.5 mph 24.2 mph 0.07 in Rain Rain
11:43 AM 44.6 °F 39.7 °F 39.2 °F 81% 29.63 in 1.8 mi ENE 9.2 mph 24.2 mph 0.11 in Rain Heavy Rain
11:51 AM 44.6 °F 40.2 °F 39.2 °F 81% 29.63 in 1.5 mi ENE 8.1 mph 19.6 mph 0.15 in Rain Rain
11:53 AM 44.1 °F 40.1 °F 39.9 °F 85% 29.63 in 1.8 mi ENE 6.9 mph 19.6 mph 0.15 in Rain Rain
12:00 PM 44.6 °F 38.4 °F 39.2 °F 81% 29.62 in 2.0 mi East 12.7 mph 19.6 mph 0.03 in Rain Heavy Rain
12:03 PM 44.6 °F 39.2 °F 39.2 °F 81% 29.61 in 1.5 mi East 10.4 mph 19.6 mph 0.06 in Rain Heavy Rain
12:14 PM 44.6 °F 39.7 °F 39.2 °F 81% 29.62 in 2.5 mi East 9.2 mph 18.4 mph 0.09 in Rain Light Rain
12:21 PM 44.6 °F 39.2 °F 39.2 °F 81% 29.62 in 4.0 mi East 10.4 mph 19.6 mph 0.10 in Rain Light Rain
12:33 PM 44.6 °F 40.2 °F 39.2 °F 81% 29.62 in 2.5 mi East 8.1 mph - 0.10 in Rain Light Rain
12:53 PM 44.1 °F 42.5 °F 39.9 °F 85% 29.62 in 2.5 mi Variable 3.5 mph 18.4 mph 0.13 in Rain Light Rain
1:06 PM 42.8 °F 40.1 °F 39.2 °F 87% 29.61 in 3.0 mi Variable 4.6 mph - 0.01 in Rain Light Rain
1:20 PM 44.6 °F 42.2 °F 39.2 °F 81% 29.60 in 2.5 mi Variable 4.6 mph 18.4 mph 0.01 in Rain Light Rain
1:53 PM 43.0 °F 41.3 °F 39.9 °F 89% 29.59 in 3.0 mi Variable 3.5 mph - 0.01 in Rain Light Rain
2:53 PM 44.1 °F 38.6 °F 39.9 °F 85% 29.55 in 10.0 mi East 10.4 mph 20.7 mph 0.00 in   Overcast
3:53 PM 44.1 °F 40.8 °F 39.9 °F 85% 29.56 in 7.0 mi Variable 5.8 mph - 0.00 in Rain Light Rain
4:34 PM 42.8 °F 40.1 °F 39.2 °F 87% 29.55 in 5.0 mi North 4.6 mph - 0.00 in   Overcast
4:53 PM 43.0 °F 39.5 °F 39.9 °F 89% 29.57 in 8.0 mi NNW 5.8 mph - 0.00 in   Overcast
5:32 PM 42.8 °F 41.1 °F 39.2 °F 87% 29.57 in 2.0 mi Variable 3.5 mph - 0.00 in Rain Light Rain
5:49 PM 42.8 °F 40.1 °F 39.2 °F 87% 29.57 in 4.0 mi North 4.6 mph - 0.00 in Rain Light Rain
5:53 PM 42.1 °F 39.2 °F 39.9 °F 92% 29.57 in 4.0 mi NNW 4.6 mph - 0.00 in Rain Light Rain
6:53 PM 42.1 °F - 39.9 °F 92% 29.60 in 3.0 mi Calm Calm - 0.00 in Rain Light Rain
7:40 PM 41.0 °F 38.0 °F 39.2 °F 93% 29.59 in 3.0 mi NNW 4.6 mph - 0.00 in Rain Light Rain
7:53 PM 41.0 °F 39.0 °F 39.0 °F 93% 29.60 in 3.0 mi NNW 3.5 mph - 0.00 in Rain Light Rain
8:12 PM 39.2 °F 35.9 °F 39.2 °F 100% 29.60 in 2.5 mi North 4.6 mph - 0.00 in Rain Light Rain
8:34 PM 39.2 °F 35.9 °F 37.4 °F 93% 29.60 in 3.0 mi NNW 4.6 mph - 0.00 in Rain Light Rain
8:53 PM 39.0 °F - 39.0 °F 100% 29.61 in 3.0 mi Calm Calm - 0.00 in   Overcast
9:53 PM 37.9 °F 33.5 °F 37.0 °F 97% 29.63 in 8.0 mi NW 5.8 mph - 0.00 in   Overcast
10:36 PM 37.4 °F 30.8 °F 35.6 °F 93% 29.64 in 5.0 mi NNW 9.2 mph - 0.00 in Rain Light Rain
10:53 PM 37.9 °F 34.4 °F 36.0 °F 93% 29.63 in 7.0 mi NNW 4.6 mph - 0.00 in   Overcast
11:51 PM 37.4 °F - 35.6 °F 93% 29.62 in 2.5 mi Calm Calm - 0.00 in   Overcast
11:53 PM 37.0 °F - 36.0 °F 96% 29.62 in 1.8 mi Calm Calm - 0.00 in   Overcast